Regional Weather Roundup
Issued by NWS

Home | Current Version | Previous Version | Graphics & Text | Print | Product List | Glossary On
Versions: 1 2 3 4 5 6 7 8 9 10 11 12 13 14 15 16 17 18 19 20 21 22 23 24 25 26 27 28 29 30 31 32 33 34 35 36 37 38 39 40 41 42 43 44 45 46 47 48 49 50
000
ASUS43 KLOT 261606
RWRIL

ILLINOIS REGIONAL WEATHER ROUNDUP
NATIONAL WEATHER SERVICE CHICAGO/ROMEOVILLE IL
1000 AM CST FRI DEC 26 2014

NOTE: "FAIR" INDICATES FEW OR NO CLOUDS BELOW 12,000 FEET WITH NO
SIGNIFICANT WEATHER AND/OR OBSTRUCTIONS TO VISIBILITY.

* THESE STATIONS ARE NOT UNDER NWS QUALITY CONTROL. THEY ALSO MAY NOT
  REPORT WEATHER SUCH AS PRECIPITATION OR FOG.

ILZ001-002-007-009-015-016-024-261700-
NORTHWEST ILLINOIS

CITY           SKY/WX    TMP DP  RH WIND       PRES   REMARKS
MOLINE         CLOUDY    44  35  70 SW10      29.98R
STERLING*      MOSUNNY   43  36  75 SW3       30.01R
SAVANNA*       PTSUNNY   43  36  76 S7        29.99R
$$

ILZ003-004-008-010-011-017-018-261700-
NORTH CENTRAL ILLINOIS

CITY           SKY/WX    TMP DP  RH WIND       PRES   REMARKS
ROCKFORD       PTSUNNY   43  35  73 SW12      30.02R
FREEPORT*      PTSUNNY   41  36  82 S13       30.00R
ROCHELLE*      MOSUNNY   42  37  84 S16       30.02R
DE KALB*       MOSUNNY   39  35  86 S16       30.03R WCI  31
PERU*          MOSUNNY   45  37  75 SW14      30.03R
$$

ILZ005-006-012>014-019>023-261700-
NORTHEAST ILLINOIS

CITY           SKY/WX    TMP DP  RH WIND       PRES   REMARKS
CHICAGO-OHARE  PTSUNNY   42  34  73 SW17      30.03R
CHICAGO-MIDWAY PTSUNNY   43  35  73 SW10G20   30.05R
AURORA         MOSUNNY   43  36  76 S12       30.04R
LANSING*       MOSUNNY   43  36  77 SW15      30.07S
JOLIET*        MOSUNNY   41  35  77 SW5       30.06R
WAUKEGAN       PTSUNNY   43  35  73 SW16      30.01R
DUPAGE AIRPORT PTSUNNY   41  35  79 S10       30.03R
KANKAKEE*      SUNNY     44  38  79 S18G25    30.07S
WHEELING       PTSUNNY   43  34  70 SW12G20   30.05R
MORRIS*        MOSUNNY   43  38  84 SW15      30.04R
ROMEOVILLE*    MOSUNNY   40  35  80 SW12      30.05R
NORTHERLY ISL    N/A     42  33  70 S10         N/A
$$

LMZ740>746-261700-
SOUTHERN LAKE MICHIGAN

STATION/POSITION SKY/WX   TEMP    WIND        PRES    VSBY  WAVE
                          AIR SEA DIR/SP/G                  HT/PER
                          (F)     (DEG/KT/KT) (MB)    (MI)  (FT/S)
WAUKEGAN HARBOR            42                   N/A
HARRISON CRIB              40     200/ 18/ 22   N/A
BURNHAM HARBOR             43     200/  6/ 13   N/A
CALUMET HARBOR             42     200/ 14/ 18 1016.5S
MICHIGAN CITY              42     170/ 16/ 23   N/A
$$

ILZ025>027-034>036-040-047-049-050-058-095>099-261700-
WEST-CENTRAL ILLINOIS

CITY           SKY/WX    TMP DP  RH WIND       PRES   REMARKS
QUINCY         PTSUNNY   47  38  71 S14       30.02R
GALESBURG*     CLOUDY    46  38  74 S16       30.01R
MACOMB*        CLOUDY    45  38  77 S14G20    30.03R
JACKSONVILLE*  MOSUNNY   48  40  72 S14       30.06R
PITTSFIELD*    CLOUDY    49  40  71 SW13G18   30.05R
$$

ILZ028>032-037-038-041>044-048-051>054-059>061-261700-
CENTRAL ILLINOIS

CITY           SKY/WX    TMP DP  RH WIND       PRES   REMARKS
PONTIAC        MOSUNNY   45  39  78 S17       30.06R
BLOOMINGTON    MOSUNNY   44  39  82 SW17      30.08R
DECATUR        SUNNY     46  39  76 S15       30.10R
PEORIA         PTSUNNY   43  36  76 S13       30.04R
LACON*         PTSUNNY   43  35  72 SW15G22   30.04R
LINCOLN*       MOSUNNY   45  38  77 S13G21    30.07R
SPRINGFIELD    MOSUNNY   47  38  71 SW15G25   30.08R
TAYLORVILLE    SUNNY     45  37  76 S13       30.10R
$$

ILZ033-039-045-046-055>057-062-063-261700-
EAST-CENTRAL ILLINOIS

CITY           SKY/WX    TMP DP  RH WIND       PRES   REMARKS
CHAMPAIGN      MOSUNNY   45  39  79 S16       30.10R
DANVILLE*      SUNNY     43  38  81 S16G22    30.09R
RANTOUL*       SUNNY     46  40  78 SW13G18   30.09R
MATTOON        SUNNY     43  37  79 S14       30.12R
PARIS*         SUNNY     44  40  85 S14       30.14R
$$

ILZ079-100>102-261700-
SOUTHWEST ILLINOIS

CITY           SKY/WX    TMP DP  RH WIND       PRES   REMARKS
ALTON          SUNNY     46  37  71 S13G21    30.11R
BELLEVILLE     SUNNY     47  40  77 S12       30.12R
CAHOKIA*       SUNNY     49  40  71 S9        30.12R
SPARTA*        SUNNY     44  37  77 S15G25    30.16R
$$

ILZ064>066-069>071-074>076-080>082-084>086-088>090-092>094-261700-
SOUTH-CENTRAL ILLINOIS

CITY           SKY/WX    TMP DP  RH WIND       PRES   REMARKS
CARBONDALE     SUNNY     47  37  68 S23G29    30.20R
CAIRO*         PTSUNNY   49  40  70 S9        30.23R
EFFINGHAM*     SUNNY     46  35  66 S10       30.16S
MARION         PTSUNNY   45  37  76 S15       30.20R
MT. VERNON     SUNNY     46  37  71 S17       30.18R
CENTRALIA*     SUNNY     46  38  72 S16       30.15R
SALEM*         SUNNY     48  40  71 S15       30.15S
METROPOLIS*    MOSUNNY   50  40  69 SW8       30.23R
$$

ILZ067-068-072-073-078-083-087-091-261700-
SOUTHEAST ILLINOIS

CITY           SKY/WX    TMP DP  RH WIND       PRES   REMARKS
LAWRENCEVILLE  SUNNY     46  39  76 S10       30.20R
FLORA*         SUNNY     45  38  77 S12       30.17S
FAIRFIELD*     SUNNY     45  38  77 S10G17    30.18R
HARRISBURG*    SUNNY     48  39  70 SW14      30.22R
ROBINSON*      SUNNY     44  39  81 S9        30.19S
CARMI*         SUNNY     48  41  77 S16       30.21R
$$

ABBREVIATIONS USED IN REMARKS
   TC - TEMPERATURE IN CELSIUS
  WCI - WIND CHILL INDEX
   HX - HEAT INDEX
  VSB - VISIBILITY
$$




USA.gov is the U.S. government's official web portal to all federal, state and local government web resources and services.